Flag for United Kingdom Weather past 2 weeks in Northampton, England, United Kingdom

Now
48 °F

Partly cloudy.


Feels Like: 44 °F
Forecast: 48 / 61 °F
Wind: 9 mph from West

Location: Wittering

Current Time: Sep 3, 2015 at 6:25:28 AM

Latest Report: Sep 3, 2015 at 5:50 AM


Visibility: N/A

Pressure: 29.95 "Hg

Humidity: 100%

Dew point: 48 °F

Location of NorthamptonLocation

Historic Weather in Northampton — Graph

°F

Northampton temperature yesterday

Maximum temperature yesterday: 61 °F (at 1:50 PM)
Minimum temperature yesterday: 46 °F (at 5:50 AM)
Average temperature yesterday: 55 °F

Past Weeks' High & Low Weather Summary

 TemperatureHumidityPressure
High84 °F (Aug 22, 2:50 PM)100% (Aug 19, 11:50 PM)30.12 "Hg (Aug 19, 11:50 PM)
Low46 °F (Sep 2, 5:50 AM)39% (Aug 23, 11:50 AM)29.47 "Hg (Aug 24, 1:50 PM)
Average61 °F80%29.88 "Hg
* Reported Aug 19 4:50 AM — Sep 3 4:50 AM, Northampton, Weather by CustomWeather, © 2015

Note: Actual official high and low records may vary slightly from our data, if they occured in-between our weather recording intervals... More about our weather records

Advertising

Northampton weather history for previous 24 hours

 ConditionsComfort  
Time TempWeatherWind HumidityBarometerVisibility
4:50 AM
Thu, Sep 3
48 °FOvercast.8 mph94%29.95 "HgN/A
3:50 AM48 °FPassing clouds.9 mph94%29.95 "HgN/A
2:50 AM50 °FPartly cloudy.9 mph94%29.98 "HgN/A
1:50 AM50 °FPartly cloudy.8 mph94%29.98 "HgN/A
12:50 AM52 °FPassing clouds.8 mph88%30.01 "HgN/A
11:50 PM
Wed, Sep 2
54 °FOvercast.12 mph82%30.01 "HgN/A
10:50 PM54 °FOvercast.9 mph88%30.01 "HgN/A
9:50 PM52 °FOvercast.8 mph94%30.01 "HgN/A
8:50 PM54 °FPassing clouds.8 mph94%30.01 "HgN/A
7:50 PM54 °FOvercast.3 mph94%30.01 "HgN/A
6:50 PM55 °FPartly sunny.3 mph88%30.01 "HgN/A
5:50 PM55 °FLots of rain. Partly sunny.10 mph77%30.01 "HgN/A
4:50 PM61 °FScattered showers. Broken clouds.2 mph55%30.01 "HgN/A
3:50 PM61 °FPartly sunny.8 mph59%30.01 "HgN/A
2:50 PM61 °FPartly sunny.5 mph59%30.01 "HgN/A
1:50 PM61 °FPartly sunny.6 mph59%30.04 "HgN/A
12:50 PM59 °FBroken clouds.7 mph63%30.04 "HgN/A
11:50 AM59 °FBroken clouds.7 mph68%30.04 "HgN/A
10:50 AM59 °FBroken clouds.7 mph68%30.04 "HgN/A
9:50 AM57 °FScattered clouds.7 mph77%30.04 "HgN/A
8:50 AM54 °FScattered clouds.9 mph88%30.04 "HgN/A
7:50 AM52 °FSunny.9 mph94%30.04 "Hg10 mi
6:50 AM48 °FFog.5 mph94%30.04 "Hg5 mi
Weather by CustomWeather, © 2015

See weather overviewHow to use our weather pages